• In Russia
  • List of Countries
  • For 7 days
  • Water Temperature
  • Satellite Maps
  • Weather Map
  • Weather Widgets
  • user-avatar
    Login

    Hourly Weather Gotesti

    Today, 18 June, Monday

    Time Temperature Precipitation Wind Pressure Humidity
    00:00 +20°C° 0.3 mm 2 mps 755 mmHg 86%
    01:00 +20°C° 0.3 mm 2 mps 755 mmHg 87%
    02:00 +20°C° 0 mm 2 mps 755 mmHg 87%
    03:00 +20°C° 0 mm 2 mps 755 mmHg 87%
    04:00 +20°C° 0 mm 2 mps 755 mmHg 87%
    05:00 +20°C° 0 mm 3 mps 755 mmHg 87%
    06:00 +21°C° 0 mm 3 mps 755 mmHg 81%
    07:00 +24°C° 0 mm 3 mps 756 mmHg 75%
    08:00 +26°C° 0 mm 4 mps 756 mmHg 69%
    09:00 +27°C° 0.3 mm 4 mps 756 mmHg 61%
    10:00 +29°C° 0.3 mm 4 mps 755 mmHg 54%
    11:00 +32°C° 0.3 mm 4 mps 755 mmHg 46%
    12:00 +32°C° 0.2 mm 4 mps 755 mmHg 45%
    13:00 +32°C° 0.2 mm 4 mps 755 mmHg 45%
    14:00 +31°C° 0.2 mm 3 mps 755 mmHg 44%
    15:00 +31°C° 0 mm 3 mps 755 mmHg 46%
    16:00 +30°C° 0 mm 3 mps 755 mmHg 48%
    17:00 +30°C° 0 mm 2 mps 755 mmHg 50%
    18:00 +29°C° 0 mm 2 mps 755 mmHg 53%
    19:00 +27°C° 0 mm 2 mps 755 mmHg 56%
    20:00 +26°C° 0 mm 2 mps 756 mmHg 59%
    21:00 +25°C° 0.1 mm 2 mps 756 mmHg 61%
    22:00 +24°C° 0.1 mm 2 mps 756 mmHg 63%
    23:00 +23°C° 0.1 mm 1 mps 757 mmHg 65%

    Tomorrow, 19 June, Tuesday

    Time Temperature Precipitation Wind Pressure Humidity
    00:00 +23°C° 0 mm 1 mps 757 mmHg 66%
    01:00 +21°C° 0 mm 2 mps 757 mmHg 67%
    02:00 +21°C° 0 mm 2 mps 757 mmHg 68%
    03:00 +20°C° 0 mm 2 mps 758 mmHg 69%
    04:00 +20°C° 0 mm 2 mps 758 mmHg 70%
    05:00 +19°C° 0 mm 3 mps 758 mmHg 71%
    06:00 +21°C° 0 mm 3 mps 758 mmHg 65%
    07:00 +24°C° 0 mm 3 mps 759 mmHg 59%
    08:00 +26°C° 0 mm 4 mps 759 mmHg 54%
    09:00 +27°C° 0 mm 4 mps 759 mmHg 48%
    10:00 +29°C° 0 mm 4 mps 759 mmHg 42%
    11:00 +32°C° 0 mm 4 mps 759 mmHg 36%
    12:00 +32°C° 0 mm 4 mps 759 mmHg 34%
    13:00 +33°C° 0 mm 4 mps 759 mmHg 32%
    14:00 +33°C° 0 mm 3 mps 759 mmHg 30%
    15:00 +33°C° 0 mm 4 mps 759 mmHg 31%
    16:00 +33°C° 0 mm 4 mps 759 mmHg 32%
    17:00 +33°C° 0 mm 4 mps 759 mmHg 33%
    18:00 +30°C° 0 mm 4 mps 759 mmHg 39%
    19:00 +28°C° 0 mm 3 mps 759 mmHg 44%
    20:00 +26°C° 0 mm 3 mps 759 mmHg 50%
    21:00 +25°C° 0 mm 2 mps 760 mmHg 53%
    22:00 +24°C° 0 mm 2 mps 760 mmHg 55%
    23:00 +24°C° 0 mm 2 mps 760 mmHg 57%

    Day after tomorrow, 20 June, Wednesday

    Time Temperature Precipitation Wind Pressure Humidity
    00:00 +23°C° 0 mm 2 mps 761 mmHg 60%
    01:00 +23°C° 0 mm 2 mps 761 mmHg 63%
    02:00 +21°C° 0 mm 2 mps 761 mmHg 66%
    03:00 +21°C° 0 mm 2 mps 761 mmHg 68%
    04:00 +21°C° 0 mm 2 mps 761 mmHg 70%
    05:00 +21°C° 0 mm 3 mps 761 mmHg 73%
    06:00 +24°C° 0 mm 3 mps 761 mmHg 67%
    07:00 +26°C° 0 mm 3 mps 761 mmHg 62%
    08:00 +28°C° 0 mm 4 mps 762 mmHg 57%
    09:00 +29°C° 0 mm 4 mps 761 mmHg 53%
    10:00 +30°C° 0 mm 4 mps 761 mmHg 49%
    11:00 +33°C° 0 mm 4 mps 761 mmHg 45%
    12:00 +33°C° 0 mm 4 mps 761 mmHg 44%
    13:00 +33°C° 0 mm 4 mps 761 mmHg 43%
    14:00 +34°C° 0 mm 3 mps 761 mmHg 41%
    15:00 +34°C° 0 mm 3 mps 760 mmHg 43%
    16:00 +33°C° 0 mm 3 mps 760 mmHg 44%
    17:00 +33°C° 0 mm 3 mps 760 mmHg 46%
    18:00 +31°C° 0 mm 3 mps 760 mmHg 50%
    19:00 +30°C° 0 mm 2 mps 760 mmHg 54%
    20:00 +28°C° 0 mm 2 mps 760 mmHg 59%
    21:00 +27°C° 0.3 mm 2 mps 760 mmHg 63%
    22:00 +26°C° 0.3 mm 1 mps 761 mmHg 67%
    23:00 +25°C° 0.3 mm 1 mps 761 mmHg 72%

    21 June, Thursday

    Time Temperature Precipitation Wind Pressure Humidity
    00:00 +25°C° 0.6 mm 1 mps 761 mmHg 75%
    01:00 +24°C° 0.6 mm 1 mps 760 mmHg 79%
    02:00 +24°C° 0.6 mm 2 mps 760 mmHg 83%
    03:00 +23°C° 0.2 mm 2 mps 760 mmHg 85%
    04:00 +23°C° 0.2 mm 2 mps 760 mmHg 87%
    05:00 +23°C° 0.2 mm 2 mps 760 mmHg 89%
    06:00 +24°C° 0.6 mm 3 mps 760 mmHg 83%
    07:00 +26°C° 0.6 mm 3 mps 759 mmHg 77%
    08:00 +28°C° 0.6 mm 3 mps 759 mmHg 71%
    09:00 +29°C° 0.6 mm 3 mps 759 mmHg 65%
    10:00 +30°C° 0.6 mm 3 mps 759 mmHg 59%
    11:00 +31°C° 0.6 mm 3 mps 759 mmHg 53%
    12:00 +31°C° 0 mm 3 mps 758 mmHg 51%
    13:00 +33°C° 0 mm 3 mps 758 mmHg 49%
    14:00 +33°C° 0 mm 3 mps 757 mmHg 46%
    15:00 +32°C° 0 mm 2 mps 757 mmHg 48%
    16:00 +32°C° 0 mm 2 mps 757 mmHg 50%
    17:00 +31°C° 0 mm 2 mps 756 mmHg 51%
    18:00 +30°C° 0 mm 1 mps 756 mmHg 55%
    19:00 +29°C° 0 mm 1 mps 756 mmHg 58%
    20:00 +28°C° 0 mm 1 mps 756 mmHg 62%
    21:00 +27°C° 0.5 mm 1 mps 756 mmHg 66%
    22:00 +26°C° 0.5 mm 1 mps 756 mmHg 69%
    23:00 +25°C° 0.5 mm 1 mps 756 mmHg 73%

    22 June, Friday

    Time Temperature Precipitation Wind Pressure Humidity
    00:00 +25°C° 0.1 mm 1 mps 755 mmHg 75%
    01:00 +25°C° 0.1 mm 1 mps 755 mmHg 76%
    02:00 +24°C° 0.1 mm 1 mps 755 mmHg 78%
    03:00 +24°C° 0 mm 1 mps 754 mmHg 80%
    04:00 +24°C° 0 mm 1 mps 754 mmHg 81%
    05:00 +24°C° 0 mm 1 mps 754 mmHg 83%
    06:00 +25°C° 0 mm 1 mps 754 mmHg 77%
    07:00 +27°C° 0 mm 1 mps 754 mmHg 71%
    08:00 +28°C° 0 mm 1 mps 754 mmHg 65%
    09:00 +29°C° 0.1 mm 2 mps 753 mmHg 60%
    10:00 +30°C° 0.1 mm 2 mps 753 mmHg 55%
    11:00 +31°C° 0.1 mm 2 mps 753 mmHg 50%
    12:00 +32°C° 0 mm 2 mps 752 mmHg 49%
    13:00 +32°C° 0 mm 2 mps 752 mmHg 47%
    14:00 +33°C° 0 mm 3 mps 752 mmHg 45%
    15:00 +32°C° 0.3 mm 2 mps 752 mmHg 46%
    16:00 +32°C° 0.3 mm 2 mps 752 mmHg 48%
    17:00 +32°C° 0.3 mm 2 mps 752 mmHg 49%
    18:00 +29°C° 1.9 mm 3 mps 752 mmHg 59%
    19:00 +27°C° 1.9 mm 4 mps 752 mmHg 68%
    20:00 +24°C° 1.9 mm 6 mps 752 mmHg 78%
    21:00 +23°C° 2.6 mm 6 mps 752 mmHg 82%
    22:00 +22°C° 2.6 mm 7 mps 753 mmHg 86%
    23:00 +20°C° 2.6 mm 7 mps 753 mmHg 89%

    23 June, Saturday

    Time Temperature Precipitation Wind Pressure Humidity
    00:00 +18°C° 0.4 mm 7 mps 753 mmHg 89%
    01:00 +17°C° 0.4 mm 8 mps 754 mmHg 88%
    02:00 +16°C° 0.4 mm 8 mps 754 mmHg 87%
    03:00 +16°C° 0 mm 8 mps 754 mmHg 87%
    04:00 +15°C° 0 mm 8 mps 754 mmHg 86%
    05:00 +15°C° 0 mm 8 mps 755 mmHg 85%
    06:00 +15°C° 0 mm 8 mps 755 mmHg 83%
    07:00 +15°C° 0 mm 8 mps 756 mmHg 81%
    08:00 +16°C° 0 mm 8 mps 756 mmHg 79%
    09:00 +17°C° 0 mm 8 mps 756 mmHg 75%
    10:00 +17°C° 0 mm 8 mps 757 mmHg 71%
    11:00 +18°C° 0 mm 8 mps 757 mmHg 67%
    12:00 +20°C° 0 mm 7 mps 757 mmHg 66%
    13:00 +20°C° 0 mm 7 mps 757 mmHg 64%
    14:00 +20°C° 0 mm 6 mps 757 mmHg 63%
    15:00 +20°C° 0 mm 6 mps 757 mmHg 64%
    16:00 +19°C° 0 mm 5 mps 757 mmHg 66%
    17:00 +19°C° 0 mm 4 mps 758 mmHg 67%
    18:00 +19°C° 0 mm 4 mps 758 mmHg 68%
    19:00 +18°C° 0 mm 3 mps 758 mmHg 69%
    20:00 +18°C° 0 mm 3 mps 758 mmHg 69%
    21:00 +18°C° 0 mm 3 mps 759 mmHg 70%
    22:00 +18°C° 0 mm 3 mps 759 mmHg 70%
    23:00 +17°C° 0 mm 2 mps 760 mmHg 70%
    Show more